Tracking 19709 objects as of 19-Jun-2019
HD Live streaming from Space Station
objects crossing your sky now

SL-6 R/B(2)

Track SL-6 R/B(2) now!


NORAD ID: 22241
Int'l Code: 1992-081D
Perigee: 5,480.8 km
Apogee: 34,395.9 km
Inclination: 68.9 °
Period: 707.8 minutes
Semi major axis: 26309 km
RCS: 5.1164 m2 (large)
Launch date: November 25, 1992
Source: Commonwealth of Independent States (former USSR) (CIS)
Launch site: PLESETSK MISSILE AND SPACE COMPLEX (PKMTR)

Note: This is a ROCKET BODY
aabbcc
Your satellite tracking list
Your tracking list is empty




NASA's NSSDC Master Catalog

Two Line Element Set (TLE):
1 22241U 92081D   19168.76068187  .00000450  00000-0  00000+0 0  9997
2 22241  68.9345 172.7170 5495210  92.2349 328.3270  2.03440316197340
Source of the keplerian elements: AFSPC